Regional Weather Roundup
Issued by NWS

Home | Current Version | Previous Version | Graphics & Text | Print | Product List | Glossary On
Versions: 1 2 3 4 5 6 7 8 9 10 11 12 13 14 15 16 17 18 19 20 21 22 23 24 25 26 27 28 29 30 31 32 33 34 35 36 37 38 39 40 41 42 43 44 45 46 47 48 49 50
048
ASUS43 KDMX 250506
RWRIA

WEATHER ROUNDUP FOR IOWA
NATIONAL WEATHER SERVICE DES MOINES IA
1100 PM CST FRI FEB 24 2017

NOTE: "FAIR" INDICATES FEW OR NO CLOUDS BELOW 12,000 FEET WITH NO
SIGNIFICANT WEATHER AND/OR OBSTRUCTIONS TO VISIBILITY.

* - THESE STATIONS ARE NOT NWS STATIONS...THUS NOT UNDER NWS
QUALITY CONTROL.  THEY ALSO DO NOT REPORT WEATHER SUCH
AS PRECIPITATION OR FOG.

IAZ001>003-012>014-020>022-031>034-043>046-250600-
   NORTHWEST IOWA

CITY           SKY/WX    TMP DP  RH WIND       PRES   REMARKS
CARROLL *      PTCLDY    23  19  86 NW23      29.96R WCI   7
CHEROKEE *     CLEAR     20  14  77 N17       29.99S WCI   5
DENISON *      CLOUDY    21  16  79 N15G23    29.98R WCI   8
LE MARS *      CLEAR     19  14  79 NW12      30.05R WCI   7
SHELDON *      CLEAR     19  18  93 NW22      29.98R WCI   3
SIOUX CITY     CLEAR     22  14  71 NW18      30.05R WCI   7
SPENCER        CLOUDY    19  13  77 NW24      29.96R WCI   2
STORM LAKE *   CLEAR     18  12  79 N22G30    29.96R WCI   0
$$

IAZ055>058-069>071-079>083-090>094-250600-
   SOUTHWEST IOWA

CITY           SKY/WX    TMP DP  RH WIND       PRES   REMARKS
ATLANTIC *     PTCLDY    21  16  79 NW17      30.00R WCI   7
AUDUBON *      CLEAR     21  16  79 NW15      29.97R WCI   8
CLARINDA *     CLOUDY    23  18  80 NW10      30.04R WCI  12
COUNCIL BLFS * PTCLDY    21  18  86 NW9G16    30.02R WCI  11
CRESTON *      CLOUDY    23  18  80 NW20G32   29.96R WCI   8
HARLAN  *      CLEAR     21  18  86 NW15      30.03S WCI   8
LAMONI         PTCLDY    24  17  74 NW17G25   29.93R WCI  11
RED OAK *      CLOUDY    21  16  79 NW10      30.02R WCI  10
SHENANDOAH *   CLOUDY    23  18  80 NW7       30.04S WCI  15
$$

IAZ047>049-059>061-072>074-084-250600-
   CENTRAL IOWA

CITY           SKY/WX    TMP DP  RH WIND       PRES   REMARKS
AMES           CLEAR     21  17  84 NW15      29.90R WCI   8
ANKENY *       PTCLDY    23  16  74 NW14G23   29.92R WCI  11
BOONE *        CLEAR     19  14  79 NW20G26   29.89R WCI   4
CHARITON *     FLURRIES  23  19  86 NW21G28   29.89R WCI   8
DES MOINES     FLURRIES  24  16  71 NW18G28   29.91R WCI  10
GRINNELL*      FLURRIES  23  19  86 NW15      29.86R WCI  10
KNOXVILLE *    MIX PCPN  25  18  74 NW20G25   29.87R WCI  11
MARSHALLTOWN   MOCLDY    22  16  78 NW17      29.85R WCI   8
NEWTON *       CLOUDY    23  18  80 NW17G23   29.86R WCI   9
PELLA *        FLURRIES  24  19  82 NW14G22   29.89R WCI  12
PERRY *          N/A     21  17  83 NW15      29.94R WCI   8
$$

IAZ004>006-015-016-023>025-035-036-250600-
   NORTH CENTRAL IOWA

CITY           SKY/WX    TMP DP  RH WIND       PRES   REMARKS
ALGONA *       PTCLDY    19  16  86 NW21G26   29.90R HAZE    WCI   3
CLARION *      CLEAR     18  12  79 NW20      29.89R WCI   1
ESTHERVILLE    CLOUDY    18  15  88 NW26      29.93R WCI  -1
FORT DODGE *   CLEAR     19  12  73 NW9G16    29.92R WCI   9
MASON CITY     CLEAR     18  14  84 N21       29.86R WCI   1
FOREST CITY *    N/A     18  12  79 N18G24    29.87R WCI   2
WEBSTER CITY * CLEAR     19  14  79 NW24G31   29.88R WCI   2
IOWA FALLS *     N/A     21  15  78 NW17      29.87R WCI   7
$$

IAZ007>011-017>019-026>030-037>042-050>054-066-250600-
   NORTHEAST IOWA

CITY           SKY/WX    TMP DP  RH WIND       PRES   REMARKS
CEDAR RAPIDS   LGT SNOW  23  21  92 N23G30    29.78R FOG     WCI   7
CHARLES CITY * FLURRIES  21  16  79 N22G28    29.82R WCI   5
CLINTON *      FLURRIES  28  26  92 NW14      29.70R WCI  17
DECORAH *      FLURRIES  19  14  79 N20G28    29.75R WCI   4
DUBUQUE        LGT SNOW  23  20  88 N20G26    29.69R FOG     WCI   8
MONTICELLO *   LGT SNOW  23  21  93 NW21      29.73S WCI   8
OELWEIN *      LGT SNOW  21  18  86 N16G28    29.79R WCI   7
WATERLOO       MIX PCPN  22  15  75 N25G31    29.82R WCI   5
$$

IAZ064-065-067-068-078-250600-
   EAST CENTRAL IOWA

CITY           SKY/WX    TMP DP  RH WIND       PRES   REMARKS
DAVENPORT      LGT SNOW  28  25  88 NW17G25   29.71S FOG     WCI  16
IOWA CITY      LGT SNOW  26  22  84 NW15      29.80R FOG     WCI  14
MUSCATINE *    MIX PCPN  28  23  80 NW23      29.77R WCI  14
QUAD CITIES    LGT SNOW  32  26  78 NW17      29.71R WCI  21
$$

IAZ062-063-075>077-085>089-095>099-250600-
   SOUTHEAST IOWA

CITY           SKY/WX    TMP DP  RH WIND       PRES   REMARKS
BURLINGTON     LGT SNOW  28  25  88 NW20G28   29.77R FOG     WCI  15
FAIRFIELD *    CLOUDY    25  21  86 NW24      29.81R FOG     WCI   9
KEOKUK *       FLURRIES  28  25  86 NW17G25   29.81R WCI  16
CENTERVILLE *  FLURRIES  23  23 100 W14       29.90R WCI  11
OTTUMWA        LGT SNOW  25  21  85 NW15      29.85R FOG     WCI  13
WASHINGTON *   LGT SNOW  25  25 100 NW17G24   29.81R WCI  11
$$

ABBREVIATIONS USED IN REMARKS
   TC - TEMPERATURES IN CELSIUS
  WCI - WIND CHILL INDEX
   HX - HEAT INDEX
  VSB - VISIBILITY
$$





USA.gov is the U.S. government's official web portal to all federal, state and local government web resources and services.